• In Deutschland
  • Länderverzeichnis
  • Für 7 Tage
  • Wassertemperatur
  • Satellitenkarten
  • Wetterkarte
  • Widgets
  • user-avatar
    Anmelden

    Stündliche Wetter Asadabad

    Heute, 28 Mai, Montag

    Zeit Temperatur Niederschläge Wind Luftdruck Luftfeuchtigkeit
    00:00 +22°C° 0 mm 4 m/S 657 mmHg 36%
    01:00 +22°C° 0 mm 4 m/S 657 mmHg 36%
    02:00 +21°C° 0 mm 4 m/S 657 mmHg 36%
    03:00 +21°C° 0 mm 4 m/S 656 mmHg 36%
    04:00 +20°C° 0 mm 4 m/S 656 mmHg 35%
    05:00 +20°C° 0 mm 4 m/S 656 mmHg 35%
    06:00 +22°C° 0 mm 4 m/S 656 mmHg 32%
    07:00 +25°C° 0 mm 4 m/S 657 mmHg 29%
    08:00 +27°C° 0 mm 4 m/S 657 mmHg 26%
    09:00 +28°C° 0 mm 3 m/S 657 mmHg 24%
    10:00 +29°C° 0 mm 3 m/S 657 mmHg 22%
    11:00 +31°C° 0 mm 3 m/S 657 mmHg 20%
    12:00 +31°C° 0 mm 3 m/S 657 mmHg 20%
    13:00 +33°C° 0 mm 3 m/S 657 mmHg 19%
    14:00 +34°C° 0 mm 3 m/S 656 mmHg 19%
    15:00 +34°C° 0 mm 3 m/S 656 mmHg 19%
    16:00 +33°C° 0 mm 3 m/S 656 mmHg 19%
    17:00 +33°C° 0 mm 3 m/S 655 mmHg 20%
    18:00 +30°C° 0 mm 3 m/S 655 mmHg 23%
    19:00 +28°C° 0 mm 4 m/S 655 mmHg 26%
    20:00 +27°C° 0 mm 4 m/S 654 mmHg 28%
    21:00 +26°C° 0 mm 4 m/S 654 mmHg 30%
    22:00 +25°C° 0 mm 4 m/S 654 mmHg 31%
    23:00 +23°C° 0 mm 4 m/S 654 mmHg 33%

    Morgen, 29 Mai, Dienstag

    Zeit Temperatur Niederschläge Wind Luftdruck Luftfeuchtigkeit
    00:00 +22°C° 0 mm 4 m/S 654 mmHg 33%
    01:00 +21°C° 0 mm 4 m/S 654 mmHg 33%
    02:00 +21°C° 0 mm 4 m/S 654 mmHg 33%
    03:00 +20°C° 0 mm 4 m/S 653 mmHg 33%
    04:00 +20°C° 0 mm 4 m/S 653 mmHg 32%
    05:00 +20°C° 0 mm 3 m/S 653 mmHg 32%
    06:00 +22°C° 0 mm 3 m/S 654 mmHg 29%
    07:00 +25°C° 0 mm 3 m/S 654 mmHg 27%
    08:00 +27°C° 0 mm 3 m/S 655 mmHg 24%
    09:00 +28°C° 0 mm 2 m/S 655 mmHg 23%
    10:00 +29°C° 0 mm 2 m/S 655 mmHg 22%
    11:00 +30°C° 0 mm 2 m/S 655 mmHg 21%
    12:00 +31°C° 0,1 mm 2 m/S 655 mmHg 20%
    13:00 +31°C° 0,1 mm 2 m/S 655 mmHg 19%
    14:00 +33°C° 0,1 mm 3 m/S 655 mmHg 18%
    15:00 +32°C° 0,1 mm 2 m/S 655 mmHg 18%
    16:00 +32°C° 0,1 mm 2 m/S 654 mmHg 18%
    17:00 +32°C° 0,1 mm 2 m/S 654 mmHg 18%
    18:00 +30°C° 0 mm 2 m/S 654 mmHg 21%
    19:00 +28°C° 0 mm 2 m/S 654 mmHg 23%
    20:00 +26°C° 0 mm 2 m/S 654 mmHg 26%
    21:00 +26°C° 0 mm 2 m/S 654 mmHg 26%
    22:00 +25°C° 0 mm 3 m/S 654 mmHg 27%
    23:00 +24°C° 0 mm 3 m/S 655 mmHg 27%

    übermorgen, 30 Mai, Mittwoch

    Zeit Temperatur Niederschläge Wind Luftdruck Luftfeuchtigkeit
    00:00 +23°C° 0 mm 4 m/S 654 mmHg 28%
    01:00 +22°C° 0 mm 4 m/S 654 mmHg 29%
    02:00 +22°C° 0 mm 4 m/S 654 mmHg 29%
    03:00 +21°C° 0 mm 4 m/S 654 mmHg 29%
    04:00 +21°C° 0 mm 4 m/S 654 mmHg 29%
    05:00 +20°C° 0 mm 4 m/S 654 mmHg 29%
    06:00 +24°C° 0 mm 3 m/S 655 mmHg 26%
    07:00 +26°C° 0 mm 3 m/S 655 mmHg 23%
    08:00 +28°C° 0 mm 3 m/S 656 mmHg 21%
    09:00 +29°C° 0 mm 2 m/S 656 mmHg 19%
    10:00 +31°C° 0 mm 2 m/S 657 mmHg 17%
    11:00 +32°C° 0 mm 2 m/S 657 mmHg 15%
    12:00 +34°C° 0 mm 2 m/S 657 mmHg 15%
    13:00 +34°C° 0 mm 3 m/S 657 mmHg 14%
    14:00 +35°C° 0 mm 3 m/S 657 mmHg 14%
    15:00 +35°C° 0 mm 3 m/S 656 mmHg 14%
    16:00 +35°C° 0 mm 3 m/S 656 mmHg 13%
    17:00 +35°C° 0 mm 3 m/S 656 mmHg 13%
    18:00 +32°C° 0 mm 2 m/S 656 mmHg 16%
    19:00 +29°C° 0 mm 2 m/S 656 mmHg 19%
    20:00 +27°C° 0 mm 1 m/S 656 mmHg 22%
    21:00 +27°C° 0 mm 2 m/S 656 mmHg 22%
    22:00 +26°C° 0 mm 2 m/S 656 mmHg 22%
    23:00 +26°C° 0 mm 3 m/S 656 mmHg 22%

    31 Mai, Donnerstag

    Zeit Temperatur Niederschläge Wind Luftdruck Luftfeuchtigkeit
    00:00 +25°C° 0 mm 3 m/S 656 mmHg 24%
    01:00 +25°C° 0 mm 3 m/S 656 mmHg 25%
    02:00 +24°C° 0 mm 3 m/S 655 mmHg 27%
    03:00 +24°C° 0 mm 3 m/S 655 mmHg 28%
    04:00 +22°C° 0 mm 3 m/S 655 mmHg 28%
    05:00 +22°C° 0 mm 3 m/S 655 mmHg 29%
    06:00 +25°C° 0 mm 3 m/S 655 mmHg 27%
    07:00 +27°C° 0 mm 2 m/S 656 mmHg 24%
    08:00 +29°C° 0 mm 2 m/S 657 mmHg 22%
    09:00 +30°C° 0 mm 2 m/S 657 mmHg 20%
    10:00 +32°C° 0 mm 2 m/S 657 mmHg 19%
    11:00 +34°C° 0 mm 2 m/S 658 mmHg 17%
    12:00 +34°C° 0 mm 2 m/S 657 mmHg 17%
    13:00 +35°C° 0 mm 3 m/S 657 mmHg 16%
    14:00 +36°C° 0 mm 3 m/S 657 mmHg 16%
    15:00 +36°C° 0,1 mm 3 m/S 657 mmHg 16%
    16:00 +36°C° 0,1 mm 3 m/S 657 mmHg 16%
    17:00 +36°C° 0,1 mm 2 m/S 657 mmHg 16%
    18:00 +32°C° 0 mm 2 m/S 657 mmHg 18%
    19:00 +30°C° 0 mm 2 m/S 657 mmHg 21%
    20:00 +28°C° 0 mm 1 m/S 656 mmHg 24%
    21:00 +28°C° 0 mm 2 m/S 657 mmHg 25%
    22:00 +27°C° 0 mm 2 m/S 657 mmHg 25%
    23:00 +26°C° 0 mm 3 m/S 657 mmHg 26%

    1 Juni, Freitag

    Zeit Temperatur Niederschläge Wind Luftdruck Luftfeuchtigkeit
    00:00 +26°C° 0 mm 3 m/S 656 mmHg 27%
    01:00 +26°C° 0 mm 3 m/S 656 mmHg 27%
    02:00 +25°C° 0 mm 3 m/S 656 mmHg 28%
    03:00 +25°C° 0 mm 3 m/S 656 mmHg 29%
    04:00 +24°C° 0 mm 3 m/S 656 mmHg 29%
    05:00 +24°C° 0 mm 3 m/S 656 mmHg 30%
    06:00 +26°C° 0 mm 3 m/S 656 mmHg 28%
    07:00 +28°C° 0 mm 2 m/S 657 mmHg 25%
    08:00 +30°C° 0 mm 2 m/S 658 mmHg 23%
    09:00 +31°C° 0 mm 2 m/S 658 mmHg 21%
    10:00 +32°C° 0 mm 2 m/S 658 mmHg 20%
    11:00 +35°C° 0 mm 2 m/S 659 mmHg 18%
    12:00 +35°C° 0 mm 2 m/S 659 mmHg 17%
    13:00 +36°C° 0 mm 2 m/S 658 mmHg 16%
    14:00 +37°C° 0 mm 3 m/S 658 mmHg 15%
    15:00 +37°C° 0,1 mm 3 m/S 658 mmHg 15%
    16:00 +36°C° 0,1 mm 2 m/S 658 mmHg 15%
    17:00 +36°C° 0,1 mm 2 m/S 658 mmHg 16%
    18:00 +34°C° 0 mm 2 m/S 658 mmHg 18%
    19:00 +31°C° 0 mm 2 m/S 657 mmHg 21%
    20:00 +29°C° 0 mm 2 m/S 657 mmHg 24%
    21:00 +29°C° 0 mm 2 m/S 657 mmHg 25%
    22:00 +28°C° 0 mm 3 m/S 657 mmHg 26%
    23:00 +27°C° 0 mm 3 m/S 657 mmHg 27%

    2 Juni, Samstag

    Zeit Temperatur Niederschläge Wind Luftdruck Luftfeuchtigkeit
    00:00 +27°C° 0 mm 3 m/S 657 mmHg 27%
    01:00 +26°C° 0 mm 3 m/S 657 mmHg 28%
    02:00 +25°C° 0 mm 4 m/S 656 mmHg 28%
    03:00 +25°C° 0 mm 4 m/S 656 mmHg 28%
    04:00 +23°C° 0 mm 4 m/S 656 mmHg 28%
    05:00 +23°C° 0 mm 4 m/S 656 mmHg 28%
    06:00 +26°C° 0 mm 3 m/S 657 mmHg 25%
    07:00 +28°C° 0 mm 3 m/S 657 mmHg 23%
    08:00 +31°C° 0 mm 2 m/S 658 mmHg 20%
    09:00 +32°C° 0 mm 2 m/S 658 mmHg 18%
    10:00 +34°C° 0 mm 2 m/S 658 mmHg 15%
    11:00 +36°C° 0 mm 2 m/S 659 mmHg 13%
    12:00 +36°C° 0 mm 2 m/S 658 mmHg 12%
    13:00 +37°C° 0 mm 2 m/S 658 mmHg 12%
    14:00 +38°C° 0 mm 3 m/S 658 mmHg 11%
    15:00 +38°C° 0 mm 2 m/S 658 mmHg 11%
    16:00 +38°C° 0 mm 2 m/S 658 mmHg 11%
    17:00 +38°C° 0 mm 2 m/S 658 mmHg 11%
    18:00 +35°C° 0 mm 2 m/S 657 mmHg 14%
    19:00 +32°C° 0 mm 2 m/S 657 mmHg 17%
    20:00 +29°C° 0 mm 1 m/S 657 mmHg 19%
    21:00 +29°C° 0 mm 2 m/S 657 mmHg 19%
    22:00 +28°C° 0 mm 2 m/S 657 mmHg 18%
    23:00 +28°C° 0 mm 3 m/S 657 mmHg 18%
    Mehr zeigen